Probability
1 1 2 3 3 2 2 2 1 0 1 2 3 3 3 2 1 1 2 3 3 3 1 1 2 3 4 5 7 7 6 4 3 3 3 3 3 3 4 4 4 3 2
1 0 1 2 2 1 1 1 0 0 1 1 2 2 3 2 1 1 2 2 3 3 2 1 2 3 3 4 6 6 5 4 3 3 3 3 3 3 3 4 3 3 3
0 0 0 1 1 0 0 0 0 0 0 0 1 1 2 1 1 1 2 2 1 2 2 1 1 3 4 3 4 4 3 3 4 4 3 2 3 3 3 3 3 3 3
0 0 0 0 0 0 0 0 0 0 0 0 0 0 0 0 0 1 2 2 2 2 1 0 1 2 3 2 2 2 2 2 4 4 3 2 2 3 3 4 3 3 3
0 0 0 0 0 0 0 0 0 0 0 0 0 0 0 0 0 1 2 3 3 3 3 1 1 1 1 1 0 1 1 1 2 3 3 2 2 3 4 4 4 3 3
1 0 0 0 0 0 0 0 0 0 0 0 0 0 0 0 0 0 1 2 2 4 5 4 3 1 1 0 0 0 0 0 0 1 2 2 2 3 3 4 3 3 4
1 0 0 0 0 0 0 0 0 0 0 0 0 0 0 0 0 0 0 1 2 4 5 5 5 4 3 1 0 0 0 0 0 0 1 2 2 3 4 3 3 4 5
1 1 1 2 1 1 1 0 0 0 0 0 0 0 0 0 0 0 0 1 2 3 4 4 5 6 5 3 2 1 0 0 0 0 1 2 3 3 3 3 4 5 6
2 2 3 3 3 2 2 1 0 0 0 0 0 0 0 0 0 1 1 2 3 2 3 3 4 5 5 5 4 2 0 0 0 0 1 4 5 3 2 1 3 5 7
2 3 3 3 3 3 3 2 1 0 0 0 0 0 0 0 1 2 3 3 2 2 2 2 1 2 3 4 3 1 0 0 0 1 3 6 7 4 1 0 1 4 6
1 2 2 1 1 2 2 2 1 0 0 0 0 0 0 0 1 2 3 2 1 1 1 1 0 1 2 2 2 1 0 0 0 1 3 6 7 5 2 1 0 2 3
0 1 1 0 0 1 1 1 1 0 0 0 0 0 0 0 1 2 1 1 0 0 0 0 0 0 1 1 1 0 0 0 0 1 2 3 5 5 5 3 2 1 2
0 0 0 0 0 0 0 0 0 0 0 0 0 0 0 0 1 2 1 0 0 0 0 0 0 0 0 0 0 0 0 0 0 0 0 1 2 4 5 6 4 2 1
0 0 0 0 0 0 0 0 0 0 0 0 0 0 0 0 1 1 0 0 0 0 0 0 0 0 0 0 0 0 0 0 0 0 0 0 0 1 3 4 4 2 0
0 0 0 0 0 0 0 0 0 0 0 0 0 0 0 0 0 0 0 0 0 0 0 0 0 0 0 0 0 0 0 0 0 0 0 0 0 0 0 1 1 0 0
0 0 0 0 0 0 0 0 0 0 0 0 0 0 0 0 0 0 0 0 0 0 0 0 0 0 0 0 0 0 0 0 0 0 0 0 0 0 0 0 0 0 0
0 0 0 0 0 0 0 0 0 0 0 0 0 0 0 0 0 0 0 0 0 0 0 0 0 0 0 0 0 0 0 0 0 0 0 0 0 0 0 0 0 0 0
0 0 0 0 0 0 0 0 0 0 0 0 0 0 0 0 0 0 0 0 0 0 0 0 0 0 0 0 0 0 0 0 0 0 0 0 0 0 0 0 0 0 0
0 0 0 0 0 0 0 0 0 0 0 0 0 0 0 0 0 0 0 0 0 0 0 0 0 0 0 0 0 0 0 0 0 0 0 0 0 0 0 0 0 0 0
0 0 0 0 0 0 0 0 0 0 0 0 0 0 0 0 0 0 0 0 0 0 0 0 0 0 0 0 0 0 0 0 0 0 0 0 0 0 0 0 0 0 0
0 0 0 0 0 0 0 0 0 0 0 0 0 0 0 0 0 0 0 0 0 0 0 0 0 0 0 0 0 0 0 0 0 0 0 0 0 0 0 0 0 0 0
0 0 0 0 0 0 0 0 0 0 0 0 0 0 0 0 0 0 0 0 0 0 0 0 0 0 0 0 0 0 0 0 0 0 0 0 0 0 0 0 0 0 0
0 0 0 0 0 0 0 0 0 0 0 0 0 0 0 0 0 0 0 0 0 0 0 0 0 0 0 0 0 0 0 0 0 0 0 0 0 0 0 0 0 0 0
0 0 0 0 0 0 0 0 0 0 0 0 0 0 0 0 0 0 0 0 0 0 0 0 0 0 0 0 0 0 0 0 0 0 0 0 0 0 0 0 0 0 0
0 0 0 0 0 0 0 0 0 0 0 0 0 0 0 0 0 0 0 0 0 0 0 0 0 0 0 0 0 0 0 0 0 0 0 0 0 0 0 0 0 0 0
0 0 0 0 0 0 0 0 0 0 0 0 0 0 0 0 0 0 0 0 0 0 0 0 0 0 0 0 0 0 0 0 0 0 0 0 0 0 0 0 0 0 0
Wind_Speed
2 1 1 1 2 2 2 2 2 2 2 2 2 3 3 3 3 2 2 5 5 6 6 6 6 5 5 6 6 6 6 6 7 7 7 7 6 6 7 7 6 5 5
2 2 1 1 1 1 2 2 2 2 1 1 2 2 2 3 3 2 2 2 4 5 5 6 6 5 6 5 5 6 6 6 7 7 7 7 6 6 6 6 6 6 6
2 2 2 1 1 1 2 2 2 2 2 2 2 1 1 2 2 2 2 1 2 4 5 5 6 5 5 5 5 5 6 6 6 7 7 7 7 7 7 7 7 6 6
3 2 2 1 1 2 2 2 2 2 2 1 1 1 1 1 2 2 2 1 1 2 3 5 5 5 5 5 6 6 5 5 6 7 7 8 8 7 7 7 7 7 6
3 3 2 1 2 2 2 2 2 2 2 1 1 1 1 0 0 1 2 2 2 2 2 3 4 5 5 5 6 5 5 5 5 6 6 7 7 6 6 7 7 7 7
3 3 2 2 2 2 2 2 2 2 1 1 1 1 1 1 0 1 2 2 2 3 3 3 2 3 4 5 5 5 5 5 5 5 5 6 6 6 6 6 7 7 7
3 3 3 3 3 3 3 3 2 2 1 1 2 2 2 2 1 0 1 1 2 2 3 3 2 2 2 5 6 6 5 5 6 6 6 5 5 5 6 7 7 7 7
4 4 4 3 3 3 3 3 3 2 1 1 2 2 1 2 2 1 0 1 1 1 2 3 3 3 2 2 3 6 5 6 6 6 6 5 5 5 6 7 8 8 8
3 3 4 4 3 3 3 3 3 4 2 1 1 3 2 2 1 2 1 0 0 1 1 1 2 3 3 3 3 5 6 5 5 6 5 4 4 5 6 6 7 7 7
2 3 4 4 4 3 3 3 3 3 3 2 1 0 1 2 2 0 1 1 1 1 1 1 1 2 3 2 3 5 6 5 6 6 6 5 5 5 6 7 7 7 7
2 3 4 4 4 3 4 3 3 3 3 3 3 2 1 1 1 2 1 1 1 1 1 2 2 2 2 2 3 4 6 5 6 6 6 6 6 6 6 7 7 7 7
1 2 3 3 3 3 4 3 3 4 3 3 3 2 3 2 2 2 2 1 1 1 1 1 1 2 2 2 4 5 6 5 5 5 6 6 6 7 7 7 7 7 8
1 2 2 3 3 3 3 3 3 3 3 3 3 2 2 2 2 3 3 2 1 1 1 1 2 2 2 2 3 5 5 5 5 6 6 6 6 7 7 7 7 8 8
2 2 3 3 3 3 3 3 3 3 3 3 4 3 2 2 3 3 3 3 1 1 1 2 1 2 2 2 3 5 4 5 6 6 6 6 6 6 6 7 7 7 7
2 3 4 3 3 3 4 4 3 3 3 3 3 3 3 2 2 3 3 3 3 2 2 2 2 2 2 2 4 3 4 5 6 7 6 6 6 6 7 7 7 7 7
3 3 3 3 3 4 4 4 3 3 3 3 3 3 3 2 2 2 3 2 3 3 2 2 3 2 2 2 3 3 4 5 6 6 6 6 6 7 7 7 7 7 7
3 4 4 4 4 4 4 4 4 4 4 4 3 4 4 3 3 2 2 3 3 3 3 3 2 2 2 3 3 2 3 3 3 6 6 6 7 7 7 7 7 7 7
4 4 4 4 5 4 4 5 5 5 5 5 5 4 4 3 4 3 3 3 3 3 3 3 2 2 3 3 3 3 2 2 3 5 6 7 7 7 7 7 7 7 7
3 3 4 4 4 4 4 5 5 5 6 6 6 6 5 5 4 3 4 3 3 3 3 3 3 2 2 2 2 2 2 2 3 3 5 6 7 7 7 7 7 7 7
2 2 3 4 4 4 4 4 4 5 5 5 6 6 6 6 6 5 4 4 4 3 3 3 3 2 2 2 2 2 2 2 3 3 3 4 5 6 6 7 7 7 7
3 2 2 2 3 3 4 5 5 5 5 5 5 5 6 7 7 6 5 5 5 4 3 3 3 2 3 2 2 2 2 3 3 2 2 3 3 3 4 5 6 7 7
2 2 2 3 3 3 4 5 5 5 5 5 4 4 4 6 7 8 8 8 7 6 6 4 3 4 4 4 3 3 2 2 3 2 2 3 2 3 3 3 5 7 7
2 2 3 3 3 4 4 5 6 4 4 5 5 4 4 4 5 5 5 6 7 9 9 6 6 6 5 4 4 4 4 3 4 2 2 3 2 3 3 3 5 6 7
2 2 3 3 3 4 4 5 5 4 4 4 5 5 5 4 5 5 4 4 4 5 7 6 6 6 6 5 5 4 4 3 3 3 3 3 3 3 3 3 4 5 6
2 3 3 3 4 4 4 4 3 3 3 4 4 4 5 5 6 6 4 4 4 4 5 7 8 7 7 7 5 3 3 3 3 2 3 3 2 2 2 3 3 4 5
2 2 3 3 4 4 4 4 4 2 2 3 3 3 6 6 6 7 6 5 5 5 4 3 4 4 5 6 7 6 5 4 3 3 3 3 2 2 2 2 2 2 3
Wind_Direction
119 106 106 95 94 95 100 101 95 96 95 97 120 141 148 147 149 158 164 174 180 184 183 180 184 185 183 185 185 185 188 186 187 186 188 190 188 189 193 196 197 196 197
126 123 116 106 102 110 113 117 118 109 94 93 105 129 141 145 155 164 169 178 186 187 193 191 187 193 193 190 188 194 193 192 195 193 193 192 192 194 202 206 207 209 206
140 137 123 117 127 113 111 105 94 91 103 103 104 111 128 149 160 176 182 176 184 196 198 194 186 191 196 199 205 205 203 198 203 205 203 202 201 200 204 212 214 215 212
146 141 136 142 130 115 119 117 101 90 82 89 94 93 111 135 173 192 192 187 184 204 200 194 191 194 196 206 217 217 212 211 211 212 212 213 211 209 209 213 216 217 216
152 145 150 153 137 118 116 121 94 106 108 103 110 86 61 79 215 197 201 201 197 192 191 198 202 205 207 213 219 218 215 222 226 219 219 221 220 218 218 221 220 219 219
158 151 149 144 135 125 117 108 107 91 96 101 83 59 23 358 343 219 216 205 204 199 194 197 208 224 225 225 225 224 225 230 236 233 226 229 228 227 227 226 224 222 224
164 156 151 145 142 143 147 136 121 107 82 93 88 37 5 10 18 296 220 197 203 201 187 187 200 211 228 232 233 227 225 232 235 236 234 238 238 234 231 228 227 224 226
171 168 159 159 154 146 139 136 131 124 107 109 121 102 16 349 347 349 344 188 199 182 192 200 201 207 216 225 232 229 227 231 237 238 239 236 236 237 236 236 233 231 229
176 170 167 162 157 152 159 161 151 144 150 138 123 141 152 211 296 332 329 355 112 188 214 214 209 217 222 223 224 230 228 227 234 239 240 238 238 234 237 242 242 239 236
172 170 166 161 158 157 162 172 160 156 150 160 150 112 155 158 161 307 338 331 323 250 248 235 225 229 226 224 223 229 232 230 235 242 247 246 246 245 245 246 245 246 246
160 158 156 158 165 166 169 168 160 162 160 163 165 158 137 102 140 162 230 305 330 280 250 246 234 234 230 229 228 233 236 236 236 239 244 248 247 249 249 250 248 247 248
164 159 158 162 165 165 169 173 169 167 169 166 168 168 164 163 177 169 187 223 263 288 279 258 237 236 235 233 237 238 239 237 239 244 248 251 252 250 251 251 251 249 246
195 190 169 168 168 169 164 160 163 172 176 176 184 191 188 187 170 160 163 187 227 299 308 281 249 241 246 240 242 244 241 237 239 242 245 248 250 251 249 245 247 248 247
203 187 174 176 176 172 170 165 167 182 181 190 196 193 190 194 183 171 168 162 173 274 281 276 288 248 249 248 249 250 245 238 238 238 238 240 244 245 246 247 247 248 247
199 188 182 182 185 183 180 175 185 193 186 195 197 193 192 197 191 189 176 173 173 204 259 265 266 267 254 249 250 246 245 239 237 235 235 236 238 242 244 246 246 244 243
202 194 193 192 195 195 190 188 194 195 191 202 192 186 193 195 192 186 187 190 187 188 233 248 249 270 277 271 254 248 248 250 243 237 235 238 242 243 242 241 242 240 237
197 201 203 200 203 203 196 194 203 194 197 205 198 191 199 189 190 193 188 186 191 186 220 259 250 266 267 272 283 268 257 252 246 238 240 242 243 244 241 239 238 237 231
205 206 204 207 211 210 202 200 208 205 202 205 203 198 207 194 194 196 194 202 204 200 206 240 264 265 259 262 269 267 268 257 250 244 242 243 243 240 239 237 237 233 228
209 206 203 209 213 211 208 210 210 211 211 209 204 203 207 192 202 201 201 206 207 205 203 216 252 259 259 263 273 275 274 270 262 256 246 244 244 242 240 237 233 229 226
203 209 210 210 211 210 210 211 210 217 218 215 211 209 207 200 202 199 202 205 199 197 195 210 236 250 250 254 243 258 275 270 273 276 268 253 246 242 242 239 235 232 227
216 217 218 221 224 220 217 207 207 213 215 218 218 215 213 211 210 204 201 198 192 195 199 210 227 240 244 237 235 235 258 282 273 257 267 266 255 252 252 245 238 231 225
233 223 230 224 228 238 235 218 205 206 210 212 220 225 223 219 218 215 217 208 198 198 205 211 223 229 242 238 229 226 236 258 270 238 248 268 253 254 253 245 237 227 221
235 236 234 229 236 246 235 224 210 203 209 213 215 218 228 224 214 213 219 218 220 223 215 210 219 231 234 227 214 227 229 234 247 245 227 258 250 257 254 250 236 226 220
238 242 239 234 238 250 239 225 212 202 212 219 216 213 216 223 214 206 208 218 233 236 228 221 224 233 234 228 217 223 228 241 253 242 218 245 250 256 261 255 235 224 218
252 250 251 238 235 251 240 228 204 196 211 226 223 214 211 218 221 206 200 218 243 258 249 229 228 235 235 226 210 201 210 220 255 247 205 226 244 260 262 247 232 214 215
252 260 264 251 238 241 237 220 197 188 208 229 233 228 222 220 220 205 204 209 230 247 241 238 236 244 241 232 214 210 210 213 228 244 202 206 228 236 261 237 231 222 216